Date,TemperatureHighF,TemperatureAvgF,TemperatureLowF,DewpointHighF,DewpointAvgF,DewpointLowF,HumidityHigh,HumidityAvg,HumidityLow,PressureMaxIn,PressureMinIn,WindSpeedMaxMPH,WindSpeedAvgMPH,GustSpeedMaxMPH,PrecipitationSumIn
2013-7-1,87,73,60,65,60,56,92,67,38,30.11,30.05,5,0,7,0.00
2013-7-2,85,74,62,67,60,57,87,65,41,30.07,29.94,8,1,11,0.00
2013-7-3,85,74,62,63,58,52,87,60,35,29.97,29.82,9,1,13,0.00
2013-7-4,89,76,62,66,60,54,82,59,39,29.84,29.69,18,4,22,0.00
2013-7-5,89,79,70,70,64,58,69,61,48,29.73,29.64,16,6,21,0.00
2013-7-6,81,75,68,74,69,63,94,80,66,29.73,29.65,15,3,16,0.21
2013-7-7,90,78,70,77,72,68,92,82,64,29.80,29.69,7,1,10,0.03
2013-7-8,89,76,65,73,68,62,95,78,48,29.90,29.80,10,1,12,0.00
2013-7-9,84,74,66,73,69,62,97,84,66,29.88,29.59,15,3,24,0.70
2013-7-10,81,69,59,65,60,57,94,75,48,29.99,29.88,7,1,10,0.00
2013-7-11,82,72,59,67,62,56,94,72,54,30.00,29.83,15,4,19,0.00
2013-7-12,88,78,69,73,66,60,76,66,58,29.84,29.71,23,8,26,0.00
2013-7-13,79,71,69,70,66,65,89,85,64,29.92,29.75,16,6,21,0.12
2013-7-14,76,70,67,70,66,61,95,86,77,30.08,29.90,14,3,15,0.04
2013-7-15,86,76,66,72,68,64,95,77,55,30.12,30.02,12,3,17,0.00
2013-7-16,91,81,72,75,71,67,91,72,48,30.08,30.02,15,3,15,0.00
2013-7-17,92,82,74,75,71,67,84,70,52,30.11,29.96,12,3,14,0.00
2013-7-18,93,84,75,75,72,69,84,69,52,29.97,29.62,22,5,22,0.00
2013-7-19,84,78,65,73,66,60,88,70,52,29.81,29.62,12,2,14,0.00
2013-7-20,79,71,62,67,63,60,96,78,61,29.86,29.78,11,1,13,0.00
2013-7-21,82,74,64,70,66,59,90,76,64,29.84,29.65,12,4,16,0.01
2013-7-22,84,74,63,72,66,58,95,77,57,29.80,29.56,11,3,17,0.00
2013-7-23,80,68,58,60,57,54,92,71,44,29.93,29.79,6,1,7,0.00
2013-7-24,81,71,60,61,58,54,86,66,45,29.96,29.85,10,1,14,0.00
2013-7-25,80,70,64,68,64,59,94,80,59,29.90,29.81,11,2,13,0.19
2013-7-26,69,62,54,62,55,49,94,80,59,30.05,29.84,12,2,18,0.01
2013-7-27,70,60,48,52,49,45,92,70,50,30.05,29.89,11,2,14,0.00
2013-7-28,76,62,49,57,51,46,88,69,47,29.99,29.92,9,1,13,0.00
2013-7-29,76,62,53,62,55,51,94,79,49,30.03,29.97,6,2,13,0.20
2013-7-30,75,66,60,66,62,59,97,90,71,30.00,29.93,7,1,9,0.08
2013-7-31,79,67,57,67,60,53,98,81,49,30.00,29.92,14,1,18,0.03